Flight Track Log - Related Links

Times and Time Zones

All times are in EST time to prevent confusion due to time zone crossing. See the SKW4738 flight status page for this flight to view local times or setup timezone preferences in your user account.

Time Position Orientation Groundspeed Altitude Reporting Facility
EST Latitude Longitude Course Direction KTS MPH feet Rate Location/Type
Thu 06:17:07 PM 41.6819 -86.3042 73° East 175 201 2,500  Level Chicago Center
Thu 06:18:09 PM 41.6892 -86.2100 84° East 266 306 4,900 2,736 Climbing Chicago Center
Thu 06:19:12 PM 41.7178 -86.1028 70° East 303 349 8,200 2,928 Climbing Chicago Center
Thu 06:20:00 PM 41.8109 -85.8230 71° East  Level FlightAware Approximate
Thu 06:20:14 PM 41.7533 -85.9681 70° East 321 369 11,000  Level Chicago Center
Thu 06:21:00 PM 41.8400 -85.6991 73° East  Level FlightAware Approximate
Thu 06:21:16 PM 41.7889 -85.8356 70° East 375 432 13,400  Level Chicago Center
Thu 06:22:00 PM 41.8636 -85.5965 73° East  Level FlightAware Approximate
Thu 06:22:18 PM 41.8244 -85.7003 71° East 380 437 15,500  Level Chicago Center
Thu 06:23:20 PM 41.8617 -85.5564 71° East 400 460 17,700 1,694 Climbing Chicago Center
Thu 06:24:22 PM 41.8992 -85.4094 71° East 411 473 19,000 629 Climbing Chicago Center
Thu 06:25:24 PM 41.9406 -85.2514 71° East 442 509 19,000  Level Chicago Center
Thu 06:26:26 PM 41.9825 -85.0925 70° East 449 517 19,000  Level Chicago Center
Thu 06:27:28 PM 42.0239 -84.9242 72° East 450 518 19,000 -677 Level Chicago Center
Thu 06:28:30 PM 42.0347 -84.7706 85° East 426 490 17,600 -1,500 Descending Chicago Center
Thu 06:29:32 PM 41.9867 -84.6017 111° Southeast 407 468 15,900 -1,452 Descending Chicago Center
Thu 06:30:34 PM 41.9481 -84.4653 111° Southeast 407 468 14,600 -1,091 Descending Chicago Center
Thu 06:31:22 PM 41.9117 -84.3419 112° Southeast 409 471 13,900 -692 Descending Cleveland Center
Thu 06:31:26 PM 41.9153 -84.3511 298° West 410 472 14,000 -977 Climbing Cleveland Center
Thu 06:32:05 PM 41.8842 -84.2478 112° Southeast 402 463 13,200 -1,065 Descending Cleveland Center
Thu 06:32:28 PM 41.8739 -84.2067 109° East 400 460 12,900 -982 Descending Cleveland Center
Thu 06:33:00 PM 41.8469 -84.1186 112° Southeast 398 458 12,300 -885 Descending Cleveland Center
Thu 06:33:29 PM 41.8378 -84.0675 104° East 399 459 12,000 -247 Descending Cleveland Center
Thu 06:34:13 PM 41.8875 -83.9619 58° Northeast 392 451 12,000  Level Cleveland Center
Thu 06:34:31 PM 41.8975 -83.9506 40° Northeast 391 450 12,000  Level Cleveland Center
Thu 06:35:08 PM 41.9622 -83.8719 42° Northeast 392 451 12,000  Level Cleveland Center
Thu 06:35:32 PM 41.9786 -83.8514 43° Northeast 392 451 12,000  Level Cleveland Center
Thu 06:36:09 PM 42.0414 -83.7742 42° Northeast 392 451 12,000  Level Cleveland Center
Thu 06:36:34 PM 42.0689 -83.7367 45° Northeast 370 426 12,000  Level Cleveland Center
Thu 06:37:04 PM 42.0764 -83.6808 80° East 295 339 12,000  Level Cleveland Center
Thu 06:37:35 PM 42.0794 -83.6314 85° East 289 333 12,000  Level Cleveland Center
Thu 06:38:05 PM 42.0806 -83.5772 88° East 266 306 12,000  Level Cleveland Center
Thu 06:38:37 PM 42.0853 -83.5272 83° East 272 313 12,000  Level Cleveland Center
Thu 06:39:05 PM 42.0886 -83.4744 85° East 267 307 12,000  Level Cleveland Center
Thu 06:39:38 PM 42.0922 -83.4272 84° East 266 306 12,000  Level Cleveland Center
Thu 06:40:06 PM 42.0944 -83.3739 87° East 260 299 12,000  Level Cleveland Center
Thu 06:40:40 PM 42.0978 -83.3297 84° East 261 300 12,000  Level Cleveland Center
Thu 06:41:01 PM 42.1092 -83.2944 66° East 262 302 12,000  Level Cleveland Center
Thu 06:41:41 PM 42.1403 -83.2461 49° Northeast 275 316 12,000 -492 Level Cleveland Center
Thu 06:42:02 PM 42.1683 -83.2322 20° North 259 298 11,500 -968 Descending Cleveland Center
Thu 06:42:43 PM 42.2117 -83.2100 21° North 258 297 11,000 -885 Descending Cleveland Center
Thu 06:43:03 PM 42.2336 -83.1989 21° North 234 269 10,600 -1,161 Descending Cleveland Center
Thu 06:43:45 PM 42.2706 -83.1731 27° Northeast 242 278 9,800 -1,164 Descending Cleveland Center
Thu 06:44:10 PM 42.2958 -83.1539 29° Northeast 236 272 9,300 -1,082 Descending Cleveland Center
Thu 06:44:46 PM 42.3250 -83.1281 33° Northeast 234 269 8,700 -1,180 Descending Cleveland Center
Thu 06:45:11 PM 42.3519 -83.1053 32° Northeast 230 265 8,100 -677 Descending Cleveland Center
Thu 06:45:48 PM 42.3806 -83.0956 14° North 235 270 8,000 -909 Descending Cleveland Center
Thu 06:46:17 PM 42.4019 -83.1347 306° West 198 228 7,100 -1,377 Descending Cleveland Center
Thu 06:46:49 PM 42.3997 -83.1589 263° West 203 234 6,600 -1,377 Descending Cleveland Center
Thu 06:47:18 PM 42.3825 -83.2000 240° Southwest 186 214 5,700 -1,452 Descending Cleveland Center
Thu 06:47:51 PM 42.3656 -83.2272 230° Southwest 196 226 5,100 -1,200 Descending Cleveland Center
Thu 06:48:13 PM 42.3503 -83.2378 207° Southwest 166 191 4,600 -1,672 Descending Cleveland Center
Thu 06:48:52 PM 42.3250 -83.2569 209° Southwest 172 198 3,400 -1,672 Descending Cleveland Center
Thu 06:49:14 PM 42.3081 -83.2686 207° Southwest 165 190 2,900 -968 Descending Cleveland Center
Thu 06:49:54 PM 42.2869 -83.2850 210° Southwest 163 188 2,400 -873 Descending Cleveland Center
Thu 06:50:09 PM 42.2769 -83.2925 209° Southwest 132 152 2,100 -774 Descending Cleveland Center
Thu 06:50:56 PM 42.2553 -83.3089 209° Southwest 144 166 1,600 -689 Descending Cleveland Center
Thu 06:51:10 PM 42.2456 -83.3164 210° Southwest 132 152 1,400 -590 Descending Cleveland Center
Thu 06:51:57 PM 42.2206 -83.3336 207° Southwest 135 155 1,000 -511 Descending Cleveland Center

Login

Don't have an account? Register now (free) for customized features, flight alerts, and more!